This is the latest recevied weather packets stored in our database for station/object KLEMETTI. If no packets are shown the sender has not sent any weather packets the latest 10 day(s).
| Time | Temp. | Humidity | Pressure | Rain* | Wind** | Luminosity | Snow |
|---|---|---|---|---|---|---|---|
| 1777776431 | 6.11° C | 62% | 1007.5 hPa | 0 mm | - | - | - |
| 1777775230 | 6.11° C | 63% | 1007.6 hPa | 0 mm | - | - | - |
| 1777774031 | 6.11° C | 64% | 1007.6 hPa | 0 mm | - | - | - |
| 1777772831 | 6.11° C | 67% | 1007.4 hPa | 0 mm | - | - | - |
| 1777768031 | 6.67° C | 83% | 1007.5 hPa | 0.25 mm | - | - | - |
| 1777766831 | 6.67° C | 83% | 1007.5 hPa | 0.25 mm | - | - | - |
| 1777762031 | 7.22° C | 84% | 1007.2 hPa | 0.25 mm | - | - | - |
| 1777760831 | 7.78° C | 77% | 1007.1 hPa | 0.25 mm | - | - | - |
| 1777758430 | 8.33° C | 80% | 1006.7 hPa | 0 mm | - | - | - |
| 1777757230 | 7.78° C | 84% | 1006.5 hPa | 0 mm | - | - | - |
| 1777754831 | 8.33° C | 73% | 1006.2 hPa | 0 mm | - | - | - |
| 1777750030 | 10° C | 61% | 1006.1 hPa | 0 mm | - | - | - |
| 1777747629 | 10° C | 60% | 1006.2 hPa | 0 mm | - | - | - |
| 1777745229 | 10° C | 60% | 1006 hPa | 0 mm | - | - | - |
| 1777744029 | 10.56° C | 58% | 1006.1 hPa | 0 mm | - | - | - |
| 1777741628 | 10.56° C | 56% | 1006.1 hPa | 0 mm | - | - | - |
| 1777740429 | 10.56° C | 57% | 1006.1 hPa | 0 mm | - | - | - |
| 1777738029 | 11.67° C | 54% | 1006.2 hPa | 0 mm | - | - | - |
| 1777735628 | 12.22° C | 52% | 1006.3 hPa | 0 mm | - | - | - |
| 1777734429 | 12.78° C | 52% | 1006.4 hPa | 0 mm | - | - | - |
| 1777733228 | 12.78° C | 50% | 1006.3 hPa | 0 mm | - | - | - |
| 1777732028 | 13.33° C | 49% | 1006.4 hPa | 0 mm | - | - | - |
| 1777730827 | 13.33° C | 48% | 1006.5 hPa | 0 mm | - | - | - |
| 1777728428 | 13.89° C | 52% | 1006.8 hPa | 0 mm | - | - | - |
| 1777727228 | 13.33° C | 57% | 1006.7 hPa | 0 mm | - | - | - |
* Rain latest hour (hover to see other rain measurements)
** Current wind speed in m/s (hover to see current wind gust speed)